DW0367 Weather Reports


Display with metric or nautical units.
time (UTC)temp
F
wind
direction
speed
MPH
gust
MPH
rain 1hr
in
rain 24hr
in
rain mn
in
humidity
%
barometer
mb
20260504160204 65 279 0.0 1.0 0.00 0.00 0.00 69 1006.7
20260504150704 67 279 1.0 1.0 0.00 0.00 0.00 66 1007.5
20260504150204 67 279 0.0 1.0 0.00 0.00 0.00 66 1007.6
20260504141204 66 125 1.0 3.0 0.00 0.00 0.00 67 1007.1
20260504140704 65 119 1.0 3.0 0.00 0.00 0.00 69 1007.2
20260504140205 65 119 1.0 2.0 0.00 0.00 0.00 69 1007.2
20260504130704 60 277 0.0 2.0 0.00 0.00 0.00 76 1007.9
20260504130204 60 277 0.0 1.0 0.00 0.00 0.00 77 1007.9
20260504120204 56 276 0.0 0.0 0.00 0.00 0.00 82 1008.5
20260504110704 57 277 0.0 1.0 0.00 0.00 0.00 81 1008.4
20260504110203 57 277 0.0 0.0 0.00 0.00 0.00 81 1008.4
20260504100204 58 277 0.0 0.0 0.00 0.00 0.00 79 1008.3
20260504081703 59 277 0.0 0.0 0.00 0.00 0.00 75 1008.3
20260504080204 60 277 0.0 0.0 0.00 0.00 0.00 73 1008.1
20260504070203 63 277 0.0 1.0 0.00 0.00 0.00 68 1008.5
20260504060204 66 277 1.0 2.0 0.00 0.00 0.00 60 1008.5
20260504050704 67 277 1.0 3.0 0.00 0.00 0.00 59 1008.2
20260504050204 67 277 2.0 3.0 0.00 0.00 0.00 59 1008.2
20260504045704 67 278 2.0 3.0 0.00 0.00 0.00 59 1008.2
20260504045204 67 279 2.0 3.0 0.00 0.00 0.00 59 1008.3
20260504044204 67 270 1.0 3.0 0.00 0.00 0.00 59 1008.5
20260504043204 67 270 1.0 3.0 0.00 0.00 0.00 58 1008.9
20260504042203 67 270 1.0 3.0 0.00 0.00 0.00 58 1009.1
20260504041704 67 270 1.0 3.0 0.00 0.00 0.00 58 1009.2
20260504041204 68 253 1.0 3.0 0.00 0.00 0.00 58 1009.2
20260504040704 68 253 1.0 3.0 0.00 0.00 0.00 58 1009.2
20260504040204 68 209 1.0 2.0 0.00 0.00 0.00 58 1009.2
20260504035704 68 209 1.0 2.0 0.00 0.00 0.00 57 1009.2
20260504035204 68 209 1.0 2.0 0.00 0.00 0.00 57 1009.2
20260504034204 68 187 0.0 3.0 0.00 0.00 0.00 57 1009.5
20260504033704 68 186 1.0 3.0 0.00 0.00 0.00 57 1009.6
20260504033204 68 272 1.0 2.0 0.00 0.00 0.00 57 1009.9
20260504032704 68 272 1.0 2.0 0.00 0.00 0.00 57 1010.0
20260504032204 68 272 1.0 2.0 0.00 0.00 0.00 57 1009.9
20260504031703 68 272 0.0 1.0 0.00 0.00 0.00 57 1010.0
20260504031204 68 272 0.0 1.0 0.00 0.00 0.00 60 1010.0
20260504030704 68 272 0.0 1.0 0.00 0.00 0.00 57 1009.9
20260504030204 68 272 0.0 0.0 0.00 0.00 0.00 58 1009.9
20260504025204 69 272 0.0 1.0 0.00 0.00 0.00 57 1009.7
20260504024204 69 272 0.0 0.0 0.00 0.00 0.00 56 1009.7
20260504023703 69 272 0.0 0.0 0.00 0.00 0.00 58 1009.7
20260504023204 69 272 0.0 2.0 0.00 0.00 0.00 57 1009.7
20260504022704 69 272 0.0 2.0 0.00 0.00 0.00 57 1009.6
20260504022203 69 272 0.0 1.0 0.00 0.00 0.00 57 1009.6
20260504021703 69 272 0.0 1.0 0.00 0.00 0.00 56 1009.5
20260504020704 69 272 0.0 1.0 0.00 0.00 0.00 55 1009.5
20260504020203 69 272 0.0 1.0 0.00 0.00 0.00 55 1009.4
20260504015704 69 272 0.0 1.0 0.00 0.00 0.00 56 1009.4
20260504015204 69 271 0.0 1.0 0.00 0.00 0.00 55 1009.4
20260504014705 69 271 1.0 1.0 0.00 0.00 0.00 54 1009.4
20260504014204 70 271 0.0 1.0 0.00 0.00 0.00 55 1009.3
20260504013704 70 271 0.0 0.0 0.00 0.00 0.00 55 1009.2
20260504012704 71 271 0.0 1.0 0.00 0.00 0.00 54 1009.2
20260504012204 71 271 0.0 1.0 0.00 0.00 0.00 54 1009.2
20260504011704 71 271 0.0 1.0 0.00 0.00 0.00 52 1009.2
20260504010703 72 271 0.0 1.0 0.00 0.00 0.00 50 1009.1
20260504010204 72 271 0.0 1.0 0.00 0.00 0.00 51 1009.1
20260504005703 72 271 0.0 1.0 0.00 0.00 0.00 50 1009.1
20260504005203 72 271 0.0 1.0 0.00 0.00 0.00 50 1009.1
20260504004703 72 271 0.0 1.0 0.00 0.00 0.00 51 1009.1
20260504004204 73 271 0.0 1.0 0.00 0.00 0.00 50 1009.1
20260504003704 73 271 0.0 1.0 0.00 0.00 0.00 49 1009.1
20260504003204 73 270 0.0 1.0 0.00 0.00 0.00 49 1009.1
20260504002704 74 270 0.0 1.0 0.00 0.00 0.00 47 1009.2
20260504002204 74 270 0.0 1.0 0.00 0.00 0.00 48 1009.2
20260504001703 74 270 0.0 1.0 0.00 0.00 0.00 47 1009.1
20260504001204 74 270 0.0 1.0 0.00 0.00 0.00 46 1009.1
20260504000704 75 270 0.0 1.0 0.00 0.00 0.00 45 1009.1
20260503235204 75 270 0.0 2.0 0.00 0.00 0.00 44 1009.2
20260503234704 75 270 1.0 1.0 0.00 0.00 0.00 44 1009.2
20260503234204 76 270 0.0 3.0 0.00 0.00 0.00 44 1009.3
20260503233704 76 270 1.0 3.0 0.00 0.00 0.00 43 1009.3
20260503233204 76 269 1.0 3.0 0.00 0.00 0.00 43 1009.4
20260503232703 76 269 1.0 3.0 0.00 0.00 0.00 42 1009.4
20260503232204 76 269 1.0 3.0 0.00 0.00 0.00 42 1009.4
20260503231703 76 269 1.0 3.0 0.00 0.00 0.00 41 1009.4
20260503230203 76 277 1.0 3.0 0.00 0.00 0.00 41 1009.5
20260503225204 76 276 1.0 3.0 0.00 0.00 0.00 41 1009.7
20260503224704 76 276 1.0 3.0 0.00 0.00 0.00 40 1009.7
20260503223704 76 284 1.0 6.0 0.00 0.00 0.00 40 1009.8
20260503223204 76 284 1.0 6.0 0.00 0.00 0.00 39 1009.8
20260503222204 76 283 2.0 3.0 0.00 0.00 0.00 39 1009.9
20260503221204 76 270 1.0 3.0 0.00 0.00 0.00 40 1009.9
20260503220204 76 290 2.0 5.0 0.00 0.00 0.00 39 1010.1
20260503215704 76 281 2.0 3.0 0.00 0.00 0.00 39 1010.2
20260503214703 76 273 2.0 7.0 0.00 0.00 0.00 38 1010.2
20260503214203 76 269 2.0 7.0 0.00 0.00 0.00 38 1010.2
20260503213204 76 282 2.0 7.0 0.00 0.00 0.00 37 1010.2
20260503212704 76 279 2.0 7.0 0.00 0.00 0.00 37 1010.2
20260503212203 76 287 2.0 6.0 0.00 0.00 0.00 37 1010.3
20260503211703 76 276 2.0 6.0 0.00 0.00 0.00 37 1010.3
20260503210703 75 271 2.0 6.0 0.00 0.00 0.00 39 1010.4
20260503210204 75 267 2.0 6.0 0.00 0.00 0.00 37 1010.6
20260503205704 75 279 2.0 6.0 0.00 0.00 0.00 38 1010.6
20260503205203 75 277 2.0 5.0 0.00 0.00 0.00 39 1010.6
20260503204704 75 288 2.0 5.0 0.00 0.00 0.00 38 1010.7
20260503204204 75 189 1.0 6.0 0.00 0.00 0.00 40 1010.8
20260503203704 74 276 2.0 6.0 0.00 0.00 0.00 39 1011.0
20260503203203 74 14 2.0 9.0 0.00 0.00 0.00 39 1011.1
20260503202704 74 273 3.0 9.0 0.00 0.00 0.00 39 1011.1
20260503202204 74 278 1.0 6.0 0.00 0.00 0.00 40 1011.2
20260503201703 74 280 3.0 9.0 0.00 0.00 0.00 39 1011.3
20260503201204 73 273 3.0 9.0 0.00 0.00 0.00 38 1011.4
20260503200704 73 280 3.0 9.0 0.00 0.00 0.00 39 1011.5
20260503200204 73 278 4.0 9.0 0.00 0.00 0.00 38 1011.8
20260503195703 73 282 3.0 8.0 0.00 0.00 0.00 38 1012.0
20260503195204 73 279 2.0 7.0 0.00 0.00 0.00 40 1012.1
20260503194704 73 261 2.0 7.0 0.00 0.00 0.00 41 1012.1
20260503194204 73 281 2.0 7.0 0.00 0.00 0.00 40 1012.2
20260503193704 73 283 3.0 7.0 0.00 0.00 0.00 40 1012.4
20260503193205 73 77 1.0 7.0 0.00 0.00 0.00 42 1012.5
20260503192204 72 282 2.0 7.0 0.00 0.00 0.00 42 1012.7
20260503191704 72 275 1.0 7.0 0.00 0.00 0.00 43 1012.9
20260503190704 72 268 2.0 3.0 0.00 0.00 0.00 41 1013.2
20260503190204 71 283 1.0 3.0 0.00 0.00 0.00 44 1013.3
20260503185704 71 286 2.0 6.0 0.00 0.00 0.00 43 1013.4
20260503185204 71 268 2.0 8.0 0.00 0.00 0.00 43 1013.5
20260503184703 70 280 2.0 8.0 0.00 0.00 0.00 42 1013.6
20260503184204 70 335 1.0 8.0 0.00 0.00 0.00 42 1013.7
20260503183704 70 288 3.0 8.0 0.00 0.00 0.00 41 1013.8
20260503182704 69 248 2.0 7.0 0.00 0.00 0.00 43 1014.2
20260503182205 69 278 2.0 7.0 0.00 0.00 0.00 44 1014.2
20260503181704 69 265 2.0 6.0 0.00 0.00 0.00 43 1014.4
20260503181203 69 107 1.0 6.0 0.00 0.00 0.00 45 1014.4
20260503180704 68 244 2.0 6.0 0.00 0.00 0.00 43 1014.8
20260503180204 68 278 3.0 6.0 0.00 0.00 0.00 43 1014.9
20260503175204 68 288 2.0 6.0 0.00 0.00 0.00 45 1015.2
20260503174704 67 288 2.0 7.0 0.00 0.00 0.00 44 1015.4
20260503174204 67 273 3.0 7.0 0.00 0.00 0.00 44 1015.6
20260503173703 67 259 1.0 5.0 0.00 0.00 0.00 46 1015.8
20260503173204 67 274 2.0 6.0 0.00 0.00 0.00 44 1016.0
20260503172703 66 281 1.0 7.0 0.00 0.00 0.00 45 1016.1
20260503172204 66 280 2.0 7.0 0.00 0.00 0.00 45 1016.4
20260503171704 66 277 2.0 5.0 0.00 0.00 0.00 45 1016.5
20260503171204 65 343 2.0 3.0 0.00 0.00 0.00 47 1016.6
20260503170704 65 257 2.0 7.0 0.00 0.00 0.00 47 1016.8
20260503170203 64 276 3.0 7.0 0.00 0.00 0.00 46 1016.9